TIME,DELAY(SENSOR),PRES,T(CTD),SAL,OXYGEN,RAWTEMP,T(OPTODE),TCPHASE,TURBIDITY,TURBIDITY_GAIN,FLUOR,BETA,CDOM,ED411.5,ED443.8,ED489.6,PAR,COMP,TILT,TILTY(TILT),CHECK
1341698092,6469,233.2700042724609400,4.9114999771118160,34.9864006042480500,350.4989013671875000,761.5067749023438000,4.8835301399230960,34.0877189636230500,16,3,49,104,64,2147244474,2147561791,2147570258,2147366518,1656,0,-12,22186
1341698152,6467,230.0800018310547000,4.9120001792907715,34.9855995178222660,350.5658874511719000,761.5021972656250000,4.8836917877197270,34.0850791931152340,16,3,48,104,64,2147243414,2147560114,2147570778,2147364146,1440,0,-11,49756
1341698212,6469,226.7799987792968800,4.9116997718811035,34.9859008789062500,350.5888061523437500,761.4998168945312000,4.8837780952453610,34.0841293334960940,16,3,49,104,63,2147245055,2147558006,2147573192,2147363446,1141,0,-11,18185
1341698272,6468,223.5299987792968800,4.9113001823425290,34.9860992431640600,350.6513977050781000,761.5025024414062000,4.8836817741394040,34.0823402404785160,16,3,49,105,64,2147243419,2147557105,2147569859,2147363400,810,0,-12,13968
1341698332,6468,220.2599945068359400,4.9113001823425290,34.9859008789062500,350.5216979980469000,761.5045776367188000,4.8836059570312500,34.0868301391601560,16,3,49,104,64,2147245092,2147558875,2147569265,2147363743,525,0,-12,16623
1341698394,6467,216.9900054931640600,4.9109001159667970,34.9861984252929700,350.5170898437500000,761.5103759765625000,4.8834037780761720,34.0870704650878900,16,3,48,105,64,2147245659,2147560122,2147569823,2147363464,146,0,-12,63226
1341698454,6466,213.8500061035156200,4.9106001853942870,34.9863014221191400,350.5949096679687500,761.5117187500000000,4.8833599090576170,34.0842399597168000,16,3,48,104,64,2147245563,2147558943,2147568954,2147366234,3387,0,-12,54990
1341698514,6466,210.6699981689453000,4.9103999137878420,34.9861984252929700,350.6307067871094000,761.5161132812500000,4.8832049369812010,34.0833702087402340,16,3,49,110,64,2147244415,2147559949,2147568822,2147363715,2965,0,-12,61880
1341698574,6468,207.5000000000000000,4.9102001190185550,34.9864006042480500,350.6145935058594000,761.5194091796875000,4.8830890655517580,34.0836105346679700,16,3,48,105,64,2147246047,2147558083,2147567954,2147364895,2610,0,-12,24444
1341698634,6466,204.3699951171875000,4.9102001190185550,34.9860992431640600,350.5060119628906000,761.5228881835938000,4.8829669952392580,34.0878715515136700,16,3,49,105,63,2147245796,2147559053,2147569809,2147363647,2388,0,-12,47788
1341698698,6466,201.0500030517578000,4.9103999137878420,34.9858016967773440,350.4656982421875000,761.5247802734375000,4.8828978538513180,34.0888404846191400,16,3,48,119,64,2147248685,2147556036,2147570138,2147365581,2124,0,-12,44411
1341698758,6503,197.9900054931640600,4.9102001190185550,34.9859008789062500,350.4747924804687500,761.5286254882812000,4.8827691078186035,34.0884819030761700,16,3,50,113,64,2147244009,2147555501,2147569915,2147361320,1852,0,-12,12548
1341698822,6467,194.7899932861328000,4.9099001884460450,34.9860992431640600,350.4943847656250000,761.5358276367188000,4.8825168609619140,34.0883598327636700,16,3,49,113,64,2147246226,2147559222,2147568237,2147362619,1585,0,-12,53430
1341698882,6469,191.8300018310547000,4.9095001220703125,34.9863014221191400,350.6055908203125000,761.5402832031250000,4.8823571205139160,34.0844612121582000,16,3,50,111,63,2147245983,2147560790,2147568987,2147364813,1347,0,-12,18406
1341698946,6469,188.7100067138672000,4.9095001220703125,34.9860000610351560,350.3888854980469000,761.5471801757812000,4.8821182250976560,34.0919303894043000,16,3,48,109,65,2147245512,2147558824,2147569750,2147362962,1024,0,-12,19731
1341699008,6468,185.7200012207031200,4.9091000556945800,34.9863014221191400,350.4883117675781000,761.5515136718750000,4.8819680213928220,34.0886497497558600,15,3,49,105,64,2147244168,2147557188,2147569608,2147364735,685,0,-12,24057
1341699072,6469,182.7400054931640600,4.9091000556945800,34.9861984252929700,350.5668029785156000,761.5557250976562000,4.8818187713623050,34.0860786437988300,16,3,48,106,64,2147243976,2147556319,2147569522,2147364044,290,0,-12,16924
1341699132,6467,179.9299926757812500,4.9092998504638670,34.9860000610351560,350.5375061035156000,761.5568237304688000,4.8817811012268070,34.0871391296386700,16,3,49,113,64,2147243267,2147558627,2147573298,2147361755,3449,0,-12,42799
1341699196,6468,177.0200042724609400,4.9086999893188480,34.9863014221191400,350.4068908691406000,761.5618896484375000,4.8816008567810060,34.0916213989257800,16,3,50,106,64,2147243670,2147557668,2147572278,2147363857,2986,0,-12,9344
1341699256,6504,174.2799987792968800,4.9088001251220700,34.9860992431640600,350.4450988769531000,761.5670776367188000,4.8814158439636230,34.0905685424804700,16,3,48,109,65,2147248548,2147557147,2147572470,2147365823,2676,0,-12,43422
1341699320,6468,171.3999938964843800,4.9085001945495605,34.9863014221191400,350.4572143554687500,761.5736083984375000,4.8811931610107420,34.0901794433593750,16,3,50,107,64,2147243066,2147559419,2147573229,2147362010,2473,0,-12,14430
1341699380,6467,168.7100067138672000,4.9081001281738280,34.9864997863769500,350.5927124023437500,761.5744018554688000,4.8811650276184080,34.0857009887695300,16,3,49,108,65,2147246289,2147559648,2147574738,2147364219,2256,0,-12,42346
1341699444,6467,165.8999938964843800,4.9084000587463380,34.9860000610351560,350.4359130859375000,761.5789794921875000,4.8810019493103030,34.0911216735839840,16,3,49,108,64,2147248233,2147559240,2147573466,2147363305,2051,0,-12,38985
1341699504,6504,163.2700042724609400,4.9077000617980960,34.9864997863769500,350.5173950195312500,761.5863037109375000,4.8807468414306640,34.0884895324707000,16,3,49,107,63,2147243615,2147559378,2147576332,2147364625,1822,0,-12,7007
1341699568,6468,160.5399932861328000,4.9079999923706055,34.9861984252929700,350.6651000976562500,761.5855102539062000,4.8807749748229980,34.0835304260253900,16,3,49,110,64,2147244050,2147557641,2147574989,2147364323,1652,0,-12,3699
1341699630,6468,157.9100036621093800,4.9085001945495605,34.9855003356933600,350.4570922851562500,761.5883789062500000,4.8806719779968260,34.0904312133789060,16,3,50,110,64,2147241147,2147559213,2147571259,2147364242,1456,0,-12,34228
1341699694,6466,155.2100067138672000,4.9084000587463380,34.9858016967773440,350.4497985839844000,761.5833129882812000,4.8808522224426270,34.0907287597656250,16,3,50,111,64,2147245576,2147559611,2147572355,2147363771,1215,0,-12,43395
1341699754,6469,152.7799987792968800,4.9084000587463380,34.9859008789062500,350.4382934570312500,761.5819702148438000,4.8808989524841310,34.0910911560058600,22,3,48,119,64,2147247455,2147559432,2147575620,2147365312,996,0,-12,25282
1341699818,6468,150.2100067138672000,4.9081997871398930,34.9860992431640600,350.1525878906250000,761.5805053710938000,4.8809490203857420,34.1005706787109400,16,3,48,116,63,2147244877,2147559282,2147573393,2147366770,725,0,-12,3312
1341699878,6468,147.8000030517578000,4.9081001281738280,34.9864997863769500,350.3493957519531000,761.5728759765625000,4.8812141418457030,34.0936393737793000,16,3,49,117,64,2147245974,2147560658,2147576781,2147364136,364,0,-12,53692
1341699970,6467,143.4900054931640600,4.9085001945495605,34.9861984252929700,350.2018127441406000,761.5792236328125000,4.8809947967529300,34.0987586975097660,16,3,50,115,64,2147246806,2147561055,2147576584,2147362738,3260,0,-12,10099
1341700030,6465,139.8899993896484400,4.9092998504638670,34.9859008789062500,350.0952148437500000,761.5720214843750000,4.8812479972839355,34.1023788452148440,16,3,50,118,62,2147245585,2147559363,2147573695,2147365032,2905,0,-12,12553
1341700094,6468,136.0599975585937500,4.9089999198913570,34.9860992431640600,350.1799926757812500,761.5659179687500000,4.8814620971679690,34.0994796752929700,15,3,50,115,63,2147245412,2147556479,2147577892,2147364022,2613,0,-12,49793
1341700154,6467,132.5500030517578000,4.9095997810363770,34.9863014221191400,350.0581054687500000,761.5416870117188000,4.8823070526123050,34.1030387878418000,11,3,50,115,64,2147243414,2147557750,2147578568,2147364425,2356,0,-12,10883
1341700218,6466,128.8099975585937500,4.9109001159667970,34.9855995178222660,349.9991149902344000,761.5136718750000000,4.8832869529724120,34.1046600341796900,16,3,50,118,64,2147244415,2147559112,2147581928,2147361626,2150,0,-12,6348
1341700280,6467,125.2699966430664000,4.9112000465393070,34.9861984252929700,349.8543090820312500,761.4981079101562000,4.8838348388671875,34.1089591979980500,16,3,50,117,64,2147246678,2147561567,2147581361,2147362536,1939,0,-12,9848
1341700344,6468,121.6699981689453100,4.9120001792907715,34.9851989746093750,349.7128906250000000,761.4954223632812000,4.8839278221130370,34.1137695312500000,16,3,50,118,62,2147246874,2147558171,2147577439,2147365183,1662,0,-12,4369
1341700404,6465,118.2500000000000000,4.9140000343322750,34.9850997924804700,349.7619934082031000,761.4384765625000000,4.8859210014343260,34.1111907958984400,18,3,50,121,64,2147243574,2147560890,2147578294,2147365210,1359,0,-12,19467
1341700468,6468,114.6299972534179700,4.9156999588012695,34.9854011535644500,349.6271972656250000,761.3801269531250000,4.8879680633544920,34.1145591735839840,16,3,50,119,64,2147241882,2147558066,2147579647,2147365622,1135,0,-12,28397
1341700528,6468,111.2099990844726600,4.9182000160217285,34.9854011535644500,349.6758117675781000,761.2894287109375000,4.8911437988281250,34.1110115051269500,16,3,50,120,64,2147243305,2147558865,2147582061,2147364996,815,0,-12,17258
1341700592,6467,107.5400009155273400,4.9253997802734375,34.9842987060546900,349.5101013183594000,761.1218872070312000,4.8970050811767580,34.1133003234863300,16,3,50,119,64,2147246496,2147557256,2147584722,2147366618,303,0,-12,26866
1341700652,6467,104.0400009155273400,4.9277000427246090,34.9841995239257800,349.6361999511719000,761.0521240234375000,4.8994498252868650,34.1074104309082000,16,3,50,122,64,2147244932,2147558738,2147583620,2147365713,3444,0,-12,49946
1341700716,6465,100.2900009155273400,4.9302000999450680,34.9846000671386700,349.8822937011719000,760.9484863281250000,4.9030737876892090,34.0972518920898440,16,3,50,120,65,2147247337,2147562267,2147589983,2147365951,2898,0,-12,61585
1341700776,6503,96.7300033569336000,4.9337000846862790,34.9846000671386700,350.0047912597656000,760.8599853515625000,4.9061760902404785,34.0913696289062500,16,3,50,120,64,2147246440,2147559483,2147589869,2147364269,2715,0,-12,53319
1341700840,6468,92.9000015258789000,4.9363999366760250,34.9845008850097660,350.0389099121094000,760.7938232421875000,4.9084892272949220,34.0889701843261700,16,3,50,123,64,2147243025,2147562139,2147596808,2147367501,2461,0,-12,49189
1341700902,6468,89.1999969482421900,4.9444999694824220,34.9844017028808600,350.0584106445312500,760.5703125000000000,4.9163150787353520,34.0839195251464840,16,3,51,125,64,2147243250,2147560086,2147595807,2147366321,2157,0,-12,9407
1341700966,6467,85.4700012207031200,4.9545998573303220,34.9840011596679700,350.0043029785156000,760.2476806640625000,4.9276051521301270,34.0792503356933600,18,3,51,122,64,2147245467,2147564809,2147598815,2147368817,1842,0,-12,16341
1341701028,6467,81.9199981689453100,4.9790000915527340,34.9842987060546900,349.5595092773437500,759.6213989257812000,4.9495139122009280,34.0817604064941400,18,3,52,126,65,2147246418,2147564891,2147602417,2147365796,1436,0,-12,54300
1341701092,6468,78.2500000000000000,5.0006999969482420,34.9846992492675800,349.1931152343750000,758.9536132812500000,4.9728779792785645,34.0812187194824200,22,3,53,131,64,2147243560,2147565265,2147604808,2147368355,1122,0,-12,4171
1341701154,6467,74.7500000000000000,5.0349998474121090,34.9850997924804700,349.0046081542969000,758.0114746093750000,5.0058169364929200,34.0689201354980500,16,3,56,133,65,2147249910,2147565485,2147606810,2147366111,1022,0,-12,1878
1341701218,6467,71.4000015258789000,5.0553002357482910,34.9859008789062500,348.7500000000000000,757.3643188476562000,5.0284399986267090,34.0646209716796900,19,3,60,133,66,2147248031,2147566857,2147607551,2147368790,638,0,-12,55525
1341701280,6466,68.2200012207031200,5.0890998840332030,34.9865989685058600,348.8646850585937500,756.4617919921875000,5.0599751472473145,34.0431098937988300,16,3,62,134,65,2147246568,2147568832,2147613105,2147371071,3029,0,-12,61479
1341701344,6467,64.9899978637695300,5.1027998924255370,34.9873008728027340,348.8576049804687500,755.8828735351562000,5.0801959037780760,34.0319709777832000,16,3,64,141,64,2147248845,2147569508,2147615355,2147370468,2845,0,-12,64306
1341701406,6466,61.8400001525878900,5.1977000236511230,34.9894981384277340,348.7706909179687500,753.5913085937500000,5.1601982116699220,33.9900207519531250,16,3,72,138,66,2147247816,2147570692,2147620918,2147374715,2230,0,-12,23689
1341701470,6468,58.5999984741210940,5.2592000961303710,34.9916000366210940,348.9697875976562500,751.7432861328125000,5.2246551513671875,33.9470596313476560,16,3,78,144,66,2147249622,2147572447,2147627460,2147375739,1917,0,-12,52786
1341701532,6468,55.4799995422363300,5.2673997879028320,34.9929008483886700,349.3918151855469000,751.3541259765625000,5.2382221221923830,33.9251899719238300,18,3,82,141,66,2147249745,2147573064,2147634939,2147377197,1613,0,-12,52747
1341701596,6468,52.1300010681152340,5.2768998146057130,34.9926986694335940,349.6510925292969000,751.0067138671875000,5.2503337860107420,33.9098396301269500,15,3,86,149,66,2147251350,2147580461,2147642806,2147380456,1262,0,-12,21271
1341701658,6469,48.8400001525878900,5.3948998451232910,34.9958992004394500,349.6907043457031000,747.9498901367188000,5.3568120002746580,33.8489494323730500,18,3,128,164,66,2147253723,2147583496,2147655258,2147383437,829,0,-12,2709
1341701722,6469,45.5999984741210940,5.4690999984741210,34.9970016479492200,350.8515014648437500,745.7232055664062000,5.4342861175537110,33.7666816711425800,23,3,155,175,65,2147254540,2147586948,2147661855,2147390299,106,0,-12,9151
1341701784,6469,42.4500007629394500,5.5567002296447750,34.9990005493164060,351.7583007812500000,744.0612182617188000,5.4920649528503420,33.7045402526855500,25,3,193,205,66,2147261485,2147595867,2147681078,2147394463,2497,0,-12,31870
1341701848,6469,39.1599998474121100,5.6486001014709470,35.0009994506835940,352.8186950683594000,740.5045776367188000,5.6155781745910645,33.6009101867675800,28,3,236,237,66,2147266207,2147602002,2147700273,2147401178,2224,0,-12,25272
1341701910,6470,35.8300018310546900,5.7649998664855960,35.0009994506835940,354.3214111328125000,737.3986816406250000,5.7232861518859860,33.4915504455566400,34,3,275,289,64,2147273197,2147616644,2147731881,2147416626,2040,0,-12,9787
1341701974,6505,32.2900009155273440,5.8134999275207520,35.0037002563476560,355.5415954589844000,735.5969238281250000,5.7857069969177250,33.4173316955566400,36,3,303,305,66,2147292073,2147641338,2147794084,2147436968,1763,0,-12,57248
1341702036,6504,28.6700000762939450,6.0071001052856445,35.0045013427734400,356.9932861328125000,730.7614135742188000,5.9529948234558105,33.2783203125000000,50,3,448,409,66,2147324054,2147692698,2147899364,2147480273,1156,0,-11,9262
1341702100,6505,24.7500000000000000,6.0300998687744140,35.0055999755859400,360.5568847656250000,729.4036254882812000,5.9999079704284670,33.1371803283691400,52,3,468,422,66,2147403085,2147792429,2148084314,2147549654,1042,0,-12,38029
1341702162,6469,20.8600006103515620,6.0384001731872560,35.0079002380371100,362.4856872558594000,729.0255737304688000,6.0129661560058590,33.0679397583007800,56,3,479,444,64,2147544068,2147970504,2148369315,2147670020,873,0,-12,58054
1341702250,6470,16.2600002288818360,6.7204999923706055,34.9936981201171900,361.2591857910156000,710.4439086914062000,6.6523060798645020,32.7642784118652340,67,3,694,568,65,2147898271,2148379501,2148944164,2147918691,928,1,-10,64030
1341702312,6470,15.0900001525878900,7.3845000267028810,35.0172996520996100,370.4016113281250000,691.8220214843750000,7.2883048057556150,32.1427612304687500,99,3,818,677,64,2148022792,2148522508,2149119478,2147992091,829,-1,-11,29435
1341702423,6505,13.0500001907348630,8.7791004180908200,35.0287017822265600,377.7113952636719000,652.4160766601562000,8.6193866729736330,31.2449302673339840,112,3,816,758,66,2148587016,2149148968,2149851273,2148321490,1882,0,-8,21684
1341702485,6471,11.1000003814697270,9.4598999023437500,35.0302009582519500,381.4508056640625000,631.5737304687500000,9.3157806396484380,30.7916297912597660,125,3,877,675,64,2148988077,2149573119,2150302372,2148537942,2097,2,-14,38231
1341702565,6468,9.5799999237060550,9.8699998855590820,35.0275001525878900,381.3078002929687500,617.7373046875000000,9.7753391265869140,30.5735797882080080,122,3,823,690,64,2149332474,2149928054,2150613005,2148688388,2358,-1,-12,33336
1341702723,6469,8.7799997329711910,10.9626998901367190,35.0455017089843750,366.8586120605469000,582.0200195312500000,10.9520998001098630,30.4434700012207030,108,3,667,694,62,2149268251,2149834326,2150393352,2148601224,2358,1,-12,49308
1341702829,6468,5.6399998664855960,11.0322999954223630,35.0519981384277340,364.6744995117187500,579.7910156250000000,11.0250997543334960,30.4754104614257800,111,3,643,688,63,2150804593,2151383313,2151808483,2149464224,1744,-1,-6,38655
1341702877,6467,3.3299999237060547,11.0315999984741210,35.0528984069824200,364.6351928710937500,579.7484741210938000,11.0264902114868160,30.4758796691894530,107,3,633,733,62,2152284868,2152856978,2153077453,2150459094,2279,-7,0,56586
1341702927,6470,20.0000000000000000,0.0000000000000000,0.0000000000000000,364.5127868652344000,579.7271728515625000,11.0271797180175780,30.4792308807373050,105,3,632,678,62,2153243218,2153771711,2153768717,2151251684,1009,-7,4,31679
1341702954,6469,0.8600000143051147,0.0000000000000000,0.0000000000000000,364.4169921875000000,579.7225952148438000,11.0273303985595700,30.4821300506591800,112,3,629,713,61,2154003044,2154500406,2154340754,2152021106,1309,23,-11,36974
